User: anonymous   Login
Location: Hamilton
(37.7830°S, 175.2830°E)
Time: 07:22:48
(UTC+13:00)
Language:

NOSS 2-1 (E) - Orbit

View from above orbital plane
View from above orbital plane
View from above satellite
View from above satellite

Ground track
Ground track

The orbit data is extracted from the following two-line orbital elements,

1 20642U 90050E   19313.19511308 0.00000100  00000-0  17251-4 0    07
2 20642  63.3264  85.0139 0856068  41.0139 318.9861 13.41934852    03
Epoch (UTC): 09 November 2019 04:40:57
Eccentricity: 0.0856068
inclination: 63.3264°
perigee height: 462 km
apogee height: 1742 km
right ascension of ascending node: 85.0139°
argument of perigee: 41.0139°
revolutions per day: 13.41934852
mean anomaly at epoch: 318.9861°
orbit number at epoch: 0

The dashed part of the orbit path shows where the satellite is in the earth's shadow,  

DLR